Погода в Костроме

Погода в Костроме : погода сейчас, прогноз погоды и архив. Всё, что Вы хотите узнать о погоде в Костроме!

Хотите узнать прогноз погоды в Костроме? Тогда Вам сюда: Погода в Костроме

Поиск расширенной информации на нашем сайте:

Другие новости

Новости СМИ2

Главная страница сайта

Новости сайта

03.07.2017

Напоминаем, что на нашем специализированном сайте Метеоцентр.Азия вы можете получить высокодетализированные автоматические прогнозы погоды по пунктам России, СНГ и мира в авиационном формате (включающие направление и скорость ветра, видимость, явления погоды, количество и форму облачности, нижнюю и верхнюю границу облачности).


Погода в Костроме - сегодня

Время (UTC), дата Ветер
(°,м/с) 
Видим.   Явления Облачность Т
(°С)
Тd
(°С)
f(%) Тe
(°С)
Pmin
(гПа)
dP
(гПа)
Po
(мм)
O2
(г/м3)
Тmin Tmax R s Состояние
почвы
15 09.12.17 180 (Ю) 40000 м  слаб. снег  10/8 300 м средняя 
[Sc|Ac As]
-5 -6 93 -8  1014.7  749  308    -5  0.7     
18 09.12.17 180 (Ю) 35000 м  {снег}  10/8 300 м средняя 
[Sc|Ac As]
-4.8 -5.6 94 -8  1015  0.3  749  308           
21 09.12.17 170 (Ю) 40000 м    10/8 300 м средняя 
[Sc|Ac As]
-4.3 -5 95 -7  1015.2  0.3  749  307           
00 10.12.17 170 (Ю) 29000 м    10/10 300 м 
[Sc]
-4.1 -4.7 96 -6  1015.9  0.7  750  307           
03 10.12.17 160 (Ю) 2800 м  дымка  10/10 300 м 
[Sc]
-3.5 -4.1 96 -6  1015.8  -0.1  750  306  -5    0.0  23  равномерный
сухой снег
100% 
06 10.12.17 160 (Ю) 1800 м  дымка  10/10 200 м 
[Frnb]
-3 -3.6 96 -5  1015.8  750  306           
09 10.12.17 150 (ЮВ) 2000 м  дымка  10/10 200 м 
[Frnb]
-2.3 -2.9 96 -6  1015.5  -0.2  750  305           
12 10.12.17 150 (ЮВ) 8000 м  дымка  10/10 300 м 
[Frnb]
-1.8 -2.5 95 -6  1014.2  -1.3  749  304           
15 10.12.17 160 (Ю) 5{10}  4900 м  дымка  10/10 300 м 
[Frnb]
-1.5 -2.3 94 -5  1013.8  -0.4  748  303    -1.4       
18 10.12.17 150 (ЮВ) 6{11}  5000 м  слаб. снег  10/10 300 м 
[Frnb]
-1.1 -1.8 95 -5  1012.8  -1  748  303           
21 10.12.17 160 (Ю) 7-11{12}  5000 м  слаб. переохл. дождь (гололёд){снег}  10/10 300 м 
[Frnb]
-0.6 -1.5 94 -5  1012.2  -0.5  747  302           
00 11.12.17 160 (Ю) 6{11}  4500 м  слаб. снег{дождь}  10/10 300 м 
[Frnb]
-0.2 -0.9 95 -4  1011.7  -0.4  747  301           
03 11.12.17 160 (Ю) 8-12{14}  3400 м  дымка{снег}  10/10 300 м 
[Frnb]
+0.2 -0.5 95 -4  1011.2  -0.5  747  301  -1.5    0.6  22  равномерный
мокрый или
старый снег
100% 
06 11.12.17 160 (Ю) 8-13{14}  30000 м  {снег}  10/5 300 м средняя 
[Frnb|Ac trans]
+0.4 -0.5 94 -4  1011.2  0.1  747  300           
09 11.12.17 160 (Ю) 8-11{13}  30000 м    10/9 300 м средняя 
[Frnb|As op]
+1.1 -0.7 88 -3  1011.3  0.1  747  300           
12 11.12.17 160 (Ю) 5{13}  30000 м    10/9 300 м средняя 
[Frnb|As op]
+1 -1 86 -2  1010.6  -0.6  746  300           
15 11.12.17 150 (ЮВ) 6{11}  15000 м  слаб. снег  10/8 300 м средняя 
[Frnb|As op]
+0.6 -0.6 92 -3  1011  0.3  746  300    +1.2  0.3     
18 11.12.17 150 (ЮВ) 50000 м  {снег}  10/0 средняя 
[Ac As]
+0.7 -0.3 93 -2  1011.3  0.4  747  300           
21 11.12.17 140 (ЮВ) 50000 м    10/0 средняя 
[Ac As]
+0.2 -0.6 94 -2  1011.5  0.1  747  301           
00 12.12.17 140 (ЮВ) 50000 м  {снег}  10/0 средняя 
[Ac As]
+0 -0.8 94 -2  1012  0.5  747  301           
03 12.12.17 110 (В) 50000 м    10/0 средняя 
[Ac As]
-0.5 -1.6 92 1013.5  1.4  748  302  -0.5    0.7  19  равномерный
сухой снег
100% 
06 12.12.17 120 (ЮВ) 30000 м    10/9 300 м средняя 
[Frnb|As op]
+0 -1 93 +1  1014.6  1.1  749  302  -0.7         
09 12.12.17 150 (ЮВ) 30000 м    10/10 300 м 
[Frnb|Ns]
+0.1 -1.3 90 -2  1015.4  0.8  750  302           
12 12.12.17 170 (Ю) 30000 м    10/9 300 м средняя 
[Frnb|As op]
-0.3 -1.6 91 -3  1016.4  750  303           
15 12.12.17 170 (Ю) 5{10}  50000 м    10/9 300 м средняя 
[Frnb|As op]
-0.5 -3.1 83 -4  1016.8  751  303    +0.2       
Время (UTC), дата Ветер
(°,м/с) 
Видим.   Явления Облачность Т
(°С)
Тd
(°С)
f(%) Тe
(°С)
Pmin
(гПа)
dP
(гПа)
Po
(мм)
O2
(г/м3)
Тmin Tmax R s Состояние
почвы

Для получения пояснительной информации подведите курсор к названию столбца.

ПОГОДА в Костроме - архив

Всё, что Вы хотите узнать о погоде в Костроме - удобно и подробно!

Выберите нужную дату (начиная с 1 января 2015* года) и нажмите кнопку "Найти".
Будут отображены архивные сводки погоды по пункту Кострома, начиная с указанной даты.


Отображать данные в формате CSV (для использования в таблицах Excel)


Внимание! Наш архив погоды предназначен исключительно для личного некоммерческого использования в познавательных целях. Если Вам необходимы официальные справки о состоянии погоды (для производственных, юридических, коммерческих и т.п. целей), обращайтесь в органы Росгидромета.

*Примечание: данная дата относится к архиву по метеостанциям СССР (Россия, СНГ, Балтия).
Архив по метеостанциям Зарубежной Европы и Азии (кроме Китая) хранится 10 дней, по другим регионам земного шара (Китай, Африка, Америка, Австралия, Океания) - 1 день.

Кострома - район местоположения метеостанции


Название, широта, долгота, высота метеостанции:
Кострома 57.7°ш. 40.8°д. 126 м над ур. моря [Российская Федерация]

Дополнительная информация

В oтличие oт бoльшинства пoгoдных сайтoв мы публикуем пoдрoбную метеoинфoрмацию в детальнoм прoфессиoнальнoм фoрмате.

Характеристики температуры и влажнoсти вoздуха измеряются на высoте 2 м в тени вдали oт зданий и деревьев.
Скoрoсть ветра измеряется на высoте 10 м (на урoвне рoста челoвека скoрoсть ветра ниже в 1.5-2 раза). Если метеoстанция нахoдится в гoрoде или в лесу, тo скoрoсть ветра занижена на 2-4 м/с пo сравнению с oткрытым местoм. Скoрoсть ветра над акватoриями крупных рек и oзёр, а также на вершинах хoлмoв на 2-5 м/с выше, чем в oбычных услoвиях.
Атмoсфернoе давление в разных тoчках местнoсти мoжет значительнo oтличаться oт давления на метеoстанции, в зависимoсти oт услoвий рельефа (при пoдъёме на 10 м давление пoнижается примернo на 1 мм рт.ст.).